EW0214 Weather Reports


Display with metric or nautical units.
time (UTC)temp
F
wind
direction
speed
MPH
gust
MPH
rain 1hr
in
rain 24hr
in
rain mn
in
humidity
%
barometer
mb
20260906193047 94 325 0.0 2.0 0.00 0.00 0.00 56 1013.4
20260906192540 94 325 0.0 0.0 0.00 0.00 0.00 55 1013.4
20260906192034 94 325 0.0 1.0 0.00 0.00 0.00 55 1013.5
20260906191759 95 325 0.0 1.0 0.00 0.00 0.00 54 1013.4
20260906191023 95 325 0.0 2.0 0.00 0.00 0.00 53 1013.5
20260906190516 95 325 0.0 2.0 0.00 0.00 0.00 53 1013.5
20260906190011 96 325 0.0 2.0 0.00 0.00 0.00 53 1013.5
20260906185505 96 325 0.0 2.0 0.00 0.00 0.00 52 1013.6
20260906184959 96 326 1.0 2.0 0.00 0.00 0.00 52 1013.6
20260906184453 97 326 1.0 2.0 0.00 0.00 0.00 51 1013.6
20260906183947 97 327 1.0 2.0 0.00 0.00 0.00 51 1013.7
20260906183441 97 344 1.0 3.0 0.00 0.00 0.00 50 1013.7
20260906182935 97 345 1.0 3.0 0.00 0.00 0.00 50 1013.7
20260906182429 96 349 2.0 4.0 0.00 0.00 0.00 51 1013.8
20260906181923 95 344 2.0 6.0 0.00 0.00 0.00 54 1013.8
20260906181417 94 355 1.0 6.0 0.00 0.00 0.00 56 1013.9
20260906180911 93 355 1.0 4.0 0.00 0.00 0.00 55 1014.0
20260906180635 92 355 1.0 4.0 0.00 0.00 0.00 57 1014.2
20260906175858 91 355 1.0 3.0 0.00 0.00 0.00 57 1014.4
20260906175353 90 355 1.0 5.0 0.00 0.00 0.00 58 1014.5
20260906174847 89 351 1.0 5.0 0.00 0.00 0.00 60 1014.5
20260906174341 89 11 1.0 6.0 0.00 0.00 0.00 62 1014.6
20260906173835 89 12 2.0 6.0 0.00 0.00 0.00 64 1014.5
20260906173328 89 355 2.0 6.0 0.00 0.00 0.00 65 1014.7
20260906172823 88 60 2.0 5.0 0.00 0.00 0.00 67 1014.7
20260906172317 88 38 2.0 4.0 0.00 0.00 0.00 68 1014.8
20260906172041 88 36 2.0 7.0 0.00 0.00 0.00 68 1014.8
20260906171305 88 16 3.0 7.0 0.00 0.00 0.00 69 1014.9
20260906171031 87 24 2.0 7.0 0.00 0.00 0.00 68 1015.1
20260906170253 87 12 2.0 7.0 0.00 0.00 0.00 69 1015.3
20260906165749 87 55 2.0 7.0 0.00 0.00 0.00 69 1015.2
20260906165744 87 355 3.0 7.0 0.00 0.00 0.00 70 1015.3
20260906165237 87 10 2.0 7.0 0.00 0.00 0.00 70 1015.4
20260906164229 87 59 2.0 4.0 0.00 0.00 0.00 70 1015.3
20260906164224 87 59 1.0 4.0 0.00 0.00 0.00 71 1015.4
20260906163216 87 203 1.0 3.0 0.00 0.00 0.00 71 1015.3
20260906162942 86 202 1.0 4.0 0.00 0.00 0.00 71 1015.2
20260906162205 86 202 1.0 5.0 0.00 0.00 0.00 72 1015.3
20260906161659 86 199 0.0 5.0 0.00 0.00 0.00 72 1015.3
20260906161424 85 196 0.0 2.0 0.00 0.00 0.00 73 1015.2
20260906160647 85 196 0.0 2.0 0.00 0.00 0.00 73 1015.2
20260906160141 85 196 1.0 4.0 0.00 0.00 0.00 74 1015.2
20260906155634 85 196 1.0 4.0 0.00 0.00 0.00 75 1015.3
20260906155401 85 196 1.0 4.0 0.00 0.00 0.00 77 1015.2
20260906154853 85 197 1.0 4.0 0.00 0.00 0.00 78 1015.1
20260906154116 84 167 0.0 1.0 0.00 0.00 0.00 78 1015.3
20260906153842 84 167 0.0 3.0 0.00 0.00 0.00 77 1015.3
20260906153111 83 167 0.0 3.0 0.00 0.00 0.00 77 1015.0
20260906152608 83 167 1.0 5.0 0.00 0.00 0.00 77 1015.2
20260906152108 83 167 2.0 5.0 0.00 0.00 0.00 77 1015.1
20260906151608 83 169 1.0 4.0 0.00 0.00 0.00 77 1015.1
20260906151109 83 169 0.0 2.0 0.00 0.00 0.00 78 1015.1
20260906150609 83 169 0.0 0.0 0.00 0.00 0.00 78 1015.0
20260906150109 83 169 0.0 0.0 0.00 0.00 0.00 77 1015.0
20260906145608 83 169 0.0 1.0 0.00 0.00 0.00 78 1015.0
20260906145109 83 169 1.0 5.0 0.00 0.00 0.00 78 1014.9
20260906144609 83 169 1.0 5.0 0.00 0.00 0.00 78 1014.9
20260906144109 83 171 0.0 5.0 0.00 0.00 0.00 78 1014.9
20260906143609 83 175 1.0 2.0 0.00 0.00 0.00 79 1014.9
20260906143109 82 175 0.0 3.0 0.00 0.00 0.00 79 1014.9
20260906142604 82 175 0.0 3.0 0.00 0.00 0.00 79 1014.8
20260906142105 82 175 1.0 3.0 0.00 0.00 0.00 79 1014.8
20260906141604 82 175 1.0 3.0 0.00 0.00 0.00 80 1014.7
20260906141104 82 176 1.0 3.0 0.00 0.00 0.00 80 1014.6
20260906140604 82 176 2.0 5.0 0.00 0.00 0.00 81 1014.7
20260906140104 81 176 2.0 5.0 0.00 0.00 0.00 81 1014.7
20260906135605 81 159 2.0 5.0 0.00 0.00 0.00 81 1014.8
20260906135104 81 157 2.0 5.0 0.00 0.00 0.00 81 1014.8
20260906134605 81 162 1.0 4.0 0.00 0.00 0.00 81 1014.8
20260906134335 81 161 1.0 5.0 0.00 0.00 0.00 81 1014.6
20260906133604 80 161 2.0 6.0 0.00 0.00 0.00 81 1014.6
20260906133105 80 165 2.0 6.0 0.00 0.00 0.00 81 1014.5
20260906132605 80 150 0.0 5.0 0.00 0.00 0.00 81 1014.4
20260906132103 80 146 0.0 0.0 0.00 0.00 0.00 81 1014.3
20260906131603 79 147 0.0 0.0 0.00 0.00 0.00 81 1014.4
20260906131103 79 147 0.0 0.0 0.00 0.00 0.00 81 1014.3
20260906130603 79 147 0.0 0.0 0.00 0.00 0.00 81 1014.0
20260906130104 79 147 0.0 0.0 0.00 0.00 0.00 81 1014.1
20260906125558 79 147 0.0 0.0 0.00 0.00 0.00 80 1014.2
20260906125051 79 147 0.0 0.0 0.00 0.00 0.00 80 1014.1
20260906124545 79 147 0.0 0.0 0.00 0.00 0.00 80 1014.0
20260906124043 79 147 0.0 0.0 0.00 0.00 0.00 80 1014.0
20260906123814 79 147 0.0 0.0 0.00 0.00 0.00 80 1013.9
20260906123042 79 147 0.0 0.0 0.00 0.00 0.00 79 1013.9
20260906122813 79 147 0.0 0.0 0.00 0.00 0.00 79 1013.7
20260906122042 79 147 0.0 0.0 0.00 0.00 0.00 79 1013.7
20260906121541 79 147 0.0 0.0 0.00 0.00 0.00 79 1013.6
20260906121042 79 147 0.0 0.0 0.00 0.00 0.00 79 1013.5
20260906120810 79 147 0.0 0.0 0.00 0.00 0.00 79 1013.5
20260906120041 79 147 0.0 0.0 0.00 0.00 0.00 79 1013.4
20260906115539 79 147 0.0 0.0 0.00 0.00 0.00 79 1013.4
20260906115039 79 147 0.0 0.0 0.00 0.00 0.00 79 1013.4
20260906114540 79 147 0.0 0.0 0.00 0.00 0.00 79 1013.3
20260906114040 80 147 0.0 0.0 0.00 0.00 0.00 79 1013.2
20260906113540 80 147 0.0 0.0 0.00 0.00 0.00 79 1013.0
20260906113038 80 147 0.0 0.0 0.00 0.00 0.00 79 1012.9
20260906112535 80 147 0.0 0.0 0.00 0.00 0.00 78 1012.8
20260906112034 80 147 0.0 0.0 0.00 0.00 0.00 78 1012.9
20260906111531 80 147 0.0 0.0 0.00 0.00 0.00 78 1012.9
20260906111032 80 147 0.0 0.0 0.00 0.00 0.00 78 1012.6
20260906110525 80 147 0.0 0.0 0.00 0.00 0.00 78 1012.4
20260906110019 80 147 0.0 0.0 0.00 0.00 0.00 78 1012.5
20260906105746 80 147 0.0 0.0 0.00 0.00 0.00 78 1012.4
20260906105238 80 147 0.0 0.0 0.00 0.00 0.00 78 1012.4
20260906104502 80 147 0.0 0.0 0.00 0.00 0.00 78 1012.4
20260906104227 80 147 0.0 0.0 0.00 0.00 0.00 78 1012.2
20260906103720 80 147 0.0 0.0 0.00 0.00 0.00 78 1012.3
20260906102944 80 147 0.0 0.0 0.00 0.00 0.00 77 1012.3
20260906102438 80 147 0.0 0.0 0.00 0.00 0.00 77 1012.4
20260906101932 80 147 0.0 0.0 0.00 0.00 0.00 78 1012.4
20260906101426 80 147 0.0 0.0 0.00 0.00 0.00 78 1012.3
20260906100920 80 147 0.0 0.0 0.00 0.00 0.00 77 1012.4
20260906100644 80 147 0.0 0.0 0.00 0.00 0.00 77 1012.3
20260906095908 80 147 0.0 0.0 0.00 0.00 0.00 77 1012.3
20260906095402 80 147 0.0 0.0 0.00 0.00 0.00 77 1012.3
20260906094856 80 147 0.0 0.0 0.00 0.00 0.00 77 1012.4
20260906094350 80 147 0.0 0.0 0.00 0.00 0.00 77 1012.5
20260906093844 81 147 0.0 0.0 0.00 0.00 0.00 77 1012.5
20260906093338 81 147 0.0 0.0 0.00 0.00 0.00 76 1012.5
20260906092832 81 147 0.0 0.0 0.00 0.00 0.00 76 1012.5
20260906092558 81 147 0.0 0.0 0.00 0.00 0.00 76 1012.5
20260906091819 81 147 0.0 0.0 0.00 0.00 0.00 76 1012.4
20260906091546 81 147 0.0 0.0 0.00 0.00 0.00 76 1012.4
20260906090807 81 147 0.0 0.0 0.00 0.00 0.00 76 1012.4
20260906090301 81 147 0.0 0.0 0.00 0.00 0.00 75 1012.3
20260906090028 81 147 0.0 1.0 0.00 0.00 0.00 75 1012.4
20260906085250 81 147 0.0 1.0 0.00 0.00 0.00 75 1012.4
20260906084744 81 147 0.0 2.0 0.00 0.00 0.00 75 1012.3
20260906084238 82 147 1.0 3.0 0.00 0.00 0.00 75 1012.3
20260906083732 82 147 1.0 3.0 0.00 0.00 0.00 75 1012.3
20260906083226 82 146 1.0 2.0 0.00 0.00 0.00 75 1012.3
20260906082720 82 146 0.0 2.0 0.00 0.00 0.00 74 1012.5
20260906082213 82 146 0.0 2.0 0.00 0.00 0.00 74 1012.5
20260906081708 82 169 0.0 2.0 0.00 0.00 0.00 74 1012.5
20260906081434 82 169 0.0 4.0 0.00 0.00 0.00 74 1012.5
20260906080656 82 169 0.0 4.0 0.00 0.00 0.00 74 1012.6
20260906080149 82 169 0.0 2.0 0.00 0.00 0.00 73 1012.6
20260906075916 83 169 0.0 4.0 0.00 0.00 0.00 73 1012.9
20260906075137 83 169 0.0 4.0 0.00 0.00 0.00 73 1012.9
20260906074638 83 169 1.0 2.0 0.00 0.00 0.00 73 1013.1
20260906074138 83 169 1.0 4.0 0.00 0.00 0.00 73 1013.1
20260906073638 83 169 1.0 4.0 0.00 0.00 0.00 73 1013.1
20260906073136 83 169 1.0 4.0 0.00 0.00 0.00 72 1013.1
20260906072642 83 168 2.0 5.0 0.00 0.00 0.00 72 1013.1
20260906072636 83 168 1.0 5.0 0.00 0.00 0.00 72 1013.1
20260906071635 83 167 2.0 5.0 0.00 0.00 0.00 72 1013.1
20260906071135 83 178 2.0 6.0 0.00 0.00 0.00 72 1013.0
20260906070633 83 178 2.0 6.0 0.00 0.00 0.00 72 1013.1
20260906070133 83 183 2.0 5.0 0.00 0.00 0.00 72 1013.1
20260906065633 84 184 2.0 7.0 0.00 0.00 0.00 72 1013.2
20260906065133 84 182 2.0 7.0 0.00 0.00 0.00 71 1013.3
20260906064633 84 174 2.0 4.0 0.00 0.00 0.00 71 1013.4
20260906064132 84 176 3.0 7.0 0.00 0.00 0.00 71 1013.4
20260906063633 84 175 3.0 7.0 0.00 0.00 0.00 71 1013.4
20260906063134 84 146 2.0 7.0 0.00 0.00 0.00 71 1013.4
20260906062630 84 169 2.0 7.0 0.00 0.00 0.00 71 1013.4
20260906062128 84 187 2.0 5.0 0.00 0.00 0.00 71 1013.4
20260906061629 84 186 2.0 6.0 0.00 0.00 0.00 70 1013.5
20260906061128 84 173 3.0 6.0 0.00 0.00 0.00 70 1013.7
20260906060629 84 158 3.0 6.0 0.00 0.00 0.00 70 1013.6
20260906060129 84 154 3.0 6.0 0.00 0.00 0.00 70 1013.6
20260906055629 85 171 3.0 8.0 0.00 0.00 0.00 70 1013.5
20260906055129 85 146 3.0 8.0 0.00 0.00 0.00 70 1013.5
20260906054629 85 153 3.0 7.0 0.00 0.00 0.00 70 1013.4
20260906054129 85 135 3.0 7.0 0.00 0.00 0.00 70 1013.3
20260906053901 85 146 3.0 8.0 0.00 0.00 0.00 69 1013.4
20260906053128 85 175 4.0 8.0 0.00 0.00 0.00 69 1013.4
20260906052628 85 134 3.0 8.0 0.00 0.00 0.00 69 1013.5
20260906052130 85 166 3.0 6.0 0.00 0.00 0.00 69 1013.5
20260906051902 85 160 3.0 8.0 0.00 0.00 0.00 68 1013.5
20260906051128 85 157 3.0 9.0 0.00 0.00 0.00 68 1013.5
20260906050628 85 180 4.0 9.0 0.00 0.00 0.00 68 1013.5
20260906050129 85 180 3.0 8.0 0.00 0.00 0.00 68 1013.6
20260906045624 86 165 3.0 7.0 0.00 0.00 0.00 68 1013.5
20260906045118 86 171 3.0 8.0 0.00 0.00 0.00 67 1013.4
20260906044612 86 168 4.0 11.0 0.00 0.00 0.00 67 1013.6
20260906044109 86 151 4.0 11.0 0.00 0.00 0.00 67 1013.6
20260906044104 86 148 5.0 12.0 0.00 0.00 0.00 67 1013.4
20260906043054 86 151 5.0 12.0 0.00 0.00 0.00 67 1013.5
20260906042548 86 147 5.0 10.0 0.00 0.00 0.00 67 1013.5
20260906042042 86 151 4.0 10.0 0.00 0.00 0.00 66 1013.4
20260906041538 87 158 4.0 9.0 0.00 0.00 0.00 66 1013.3
20260906041533 87 148 5.0 10.0 0.00 0.00 0.00 66 1013.3
20260906040524 87 147 5.0 10.0 0.00 0.00 0.00 66 1013.3
20260906040018 87 139 5.0 11.0 0.00 0.00 0.00 65 1013.2
20260906035512 87 143 5.0 12.0 0.00 0.00 0.00 65 1013.2
20260906035006 87 128 5.0 12.0 0.00 0.00 0.00 64 1013.2
20260906034459 87 142 4.0 9.0 0.00 0.00 0.00 64 1013.3
20260906033954 87 142 5.0 11.0 0.00 0.00 0.00 63 1013.3
20260906033448 88 132 5.0 11.0 0.00 0.00 0.00 63 1013.3
20260906032942 88 130 6.0 10.0 0.00 0.00 0.00 63 1013.3
20260906032439 88 119 6.0 11.0 0.00 0.00 0.00 62 1013.3
20260906031939 88 146 5.0 11.0 0.00 0.00 0.00 62 1013.1
20260906031439 88 146 5.0 11.0 0.00 0.00 0.00 61 1013.1
20260906031210 89 152 5.0 11.0 0.00 0.00 0.00 61 1012.9
20260906030441 89 125 5.0 11.0 0.00 0.00 0.00 60 1012.9
20260906030209 89 140 4.0 11.0 0.00 0.00 0.00 60 1012.6
20260906025438 89 145 5.0 11.0 0.00 0.00 0.00 59 1012.5
20260906024937 89 137 5.0 11.0 0.00 0.00 0.00 59 1012.4
20260906024436 89 156 5.0 12.0 0.00 0.00 0.00 59 1012.2
20260906023936 90 105 5.0 12.0 0.00 0.00 0.00 59 1012.0
20260906023707 90 111 5.0 10.0 0.00 0.00 0.00 58 1011.8
20260906022938 90 171 4.0 10.0 0.00 0.00 0.00 58 1011.7
20260906022438 90 94 3.0 9.0 0.00 0.00 0.00 58 1011.6
20260906021936 90 79 3.0 9.0 0.00 0.00 0.00 57 1011.4
20260906021436 90 117 3.0 9.0 0.00 0.00 0.00 57 1011.4
20260906020938 90 107 3.0 8.0 0.00 0.00 0.00 57 1011.2
20260906020707 91 100 3.0 8.0 0.00 0.00 0.00 56 1011.2
20260906015937 91 136 3.0 8.0 0.00 0.00 0.00 56 1011.2
20260906015439 91 149 4.0 8.0 0.00 0.00 0.00 55 1011.1
20260906014938 91 102 4.0 10.0 0.00 0.00 0.00 55 1011.2
20260906014437 91 150 3.0 10.0 0.00 0.00 0.00 54 1011.1
20260906013937 91 115 3.0 9.0 0.00 0.00 0.00 54 1011.1
20260906013436 91 144 2.0 9.0 0.00 0.00 0.00 54 1011.0
20260906012936 91 145 2.0 6.0 0.00 0.00 0.00 54 1011.0
20260906012437 91 105 2.0 6.0 0.00 0.00 0.00 54 1011.0
20260906011938 92 134 3.0 7.0 0.00 0.00 0.00 54 1011.0
20260906011437 92 164 4.0 12.0 0.00 0.00 0.00 54 1011.0
20260906011208 92 148 5.0 12.0 0.00 0.00 0.00 53 1011.0
20260906010709 93 62 5.0 11.0 0.00 0.00 0.00 52 1011.0
20260906005935 93 112 5.0 11.0 0.00 0.00 0.00 51 1010.9
20260906005429 94 137 5.0 11.0 0.00 0.00 0.00 50 1011.0
20260906004922 94 118 4.0 11.0 0.00 0.00 0.00 48 1010.8
20260906004418 95 133 3.0 11.0 0.00 0.00 0.00 47 1010.6
20260906003912 95 129 4.0 10.0 0.00 0.00 0.00 47 1010.7
20260906003906 95 167 5.0 10.0 0.00 0.00 0.00 47 1010.6
20260906003128 95 129 5.0 10.0 0.00 0.00 0.00 46 1010.7
20260906002631 95 53 4.0 10.0 0.00 0.00 0.00 45 1010.6
20260906001858 95 83 2.0 7.0 0.00 0.00 0.00 45 1010.6
20260906001356 95 127 2.0 4.0 0.00 0.00 0.00 45 1010.6
20260906000857 95 130 2.0 5.0 0.00 0.00 0.00 44 1010.5
20260906000358 95 140 3.0 7.0 0.00 0.00 0.00 45 1010.5
20260905235854 96 131 3.0 7.0 0.00 0.00 0.00 44 1010.5
20260905235354 96 144 3.0 7.0 0.00 0.00 0.00 44 1010.4
20260905234854 96 168 3.0 8.0 0.00 0.00 0.00 44 1010.4
20260905234357 96 154 2.0 8.0 0.00 0.00 0.00 43 1010.3
20260905233855 96 138 1.0 7.0 0.00 0.00 0.00 44 1010.4
20260905233354 96 61 2.0 5.0 0.00 0.00 0.00 44 1010.4
20260905232852 96 63 2.0 5.0 0.00 0.00 0.00 44 1010.5
20260905232349 96 90 2.0 5.0 0.00 0.00 0.00 43 1010.4
20260905232119 96 82 2.0 6.0 0.00 0.00 0.00 43 1010.5
20260905231348 97 152 2.0 6.0 0.00 0.00 0.00 42 1010.5
20260905230848 97 153 2.0 6.0 0.00 0.00 0.00 43 1010.4
20260905230348 97 115 3.0 7.0 0.00 0.00 0.00 42 1010.4
20260905225849 97 84 3.0 7.0 0.00 0.00 0.00 41 1010.5
20260905225343 97 163 2.0 7.0 0.00 0.00 0.00 41 1010.4
20260905225107 97 15 2.0 5.0 0.00 0.00 0.00 41 1010.3
20260905224331 98 18 1.0 4.0 0.00 0.00 0.00 41 1010.3
20260905223824 98 20 1.0 5.0 0.00 0.00 0.00 40 1010.4
20260905223319 98 19 2.0 9.0 0.00 0.00 0.00 40 1010.4
20260905222813 98 64 2.0 9.0 0.00 0.00 0.00 40 1010.5
20260905222307 98 100 2.0 5.0 0.00 0.00 0.00 40 1010.5
20260905221801 98 99 2.0 6.0 0.00 0.00 0.00 39 1010.6
20260905221255 98 348 2.0 6.0 0.00 0.00 0.00 40 1010.5
20260905220749 98 113 2.0 7.0 0.00 0.00 0.00 39 1010.7
20260905220244 98 9 2.0 7.0 0.00 0.00 0.00 40 1010.7
20260905220239 98 24 3.0 9.0 0.00 0.00 0.00 40 1010.7
20260905215231 98 51 3.0 11.0 0.00 0.00 0.00 40 1010.7
20260905214725 98 39 3.0 11.0 0.00 0.00 0.00 39 1010.6
20260905214218 98 17 3.0 10.0 0.00 0.00 0.00 39 1010.7
20260905213945 98 0 2.0 7.0 0.00 0.00 0.00 39 1010.7
20260905213214 98 55 2.0 7.0 0.00 0.00 0.00 39 1010.7
20260905212713 98 93 2.0 7.0 0.00 0.00 0.00 39 1010.7
20260905212213 99 184 2.0 6.0 0.00 0.00 0.00 40 1010.6
20260905211713 99 159 1.0 6.0 0.00 0.00 0.00 40 1010.7
20260905211212 98 174 1.0 6.0 0.00 0.00 0.00 40 1010.8
20260905210710 99 175 4.0 9.0 0.00 0.00 0.00 40 1010.9
20260905210210 99 136 4.0 9.0 0.00 0.00 0.00 39 1010.9
20260905205941 100 178 2.0 9.0 0.00 0.00 0.00 39 1010.9
20260905205210 100 181 3.0 9.0 0.00 0.00 0.00 39 1011.1
20260905204710 100 11 4.0 8.0 0.00 0.00 0.00 39 1011.2
20260905204210 100 49 3.0 8.0 0.00 0.00 0.00 39 1011.3
20260905203710 101 105 2.0 8.0 0.00 0.00 0.00 37 1011.4
20260905203441 102 171 1.0 6.0 0.00 0.00 0.00 38 1011.5
20260905202710 103 171 2.0 6.0 0.00 0.00 0.00 37 1011.6
20260905202210 103 30 3.0 11.0 0.00 0.00 0.00 38 1011.6
20260905201711 103 124 3.0 11.0 0.00 0.00 0.00 37 1011.7
20260905201211 104 208 2.0 8.0 0.00 0.00 0.00 36 1011.6
20260905200704 103 173 2.0 8.0 0.00 0.00 0.00 38 1011.9
20260905200202 103 165 2.0 9.0 0.00 0.00 0.00 39 1011.9
20260905200157 103 164 3.0 9.0 0.00 0.00 0.00 38 1012.2
20260905195417 103 169 3.0 8.0 0.00 0.00 0.00 38 1012.3
20260905194918 103 118 3.0 8.0 0.00 0.00 0.00 38 1012.4
20260905194147 103 119 2.0 9.0 0.00 0.00 0.00 39 1012.4
20260905193645 102 29 4.0 11.0 0.00 0.00 0.00 38 1012.4